+ View the NASA Portal
+ Center for Near-Earth Object Studies
IMPORTANT:
The SSD Announcement email list is now available. Major changes are coming in the near future, including possible hostname and/or URL changes. To be notified of such changes, subscribe to this email list.
Please visit
this page
for more details.
Don't show this message again
JPL Small-Body Database Browser
Search:
[
help
]
379604 (2011 CY52)
Classification:
Main-belt Asteroid
SPK-ID:
2379604
[
Ephemeris
|
Orbit Diagram
|
Orbital Elements
|
Mission Design
|
Physical Parameters
|
Discovery Circumstances
]
[ show orbit diagram ]
Orbital Elements at Epoch 2458600.5 (2019-Apr-27.0) TDB
Reference:
JPL 13
(heliocentric ecliptic J2000)
Element
Value
Uncertainty (1-sigma)
Units
e
.09458351172602923
6.1949e-08
a
2.397027395556064
3.6858e-08
au
q
2.170308126780874
1.3919e-07
au
i
7.071376185113943
8.9268e-06
deg
node
335.7482062723885
5.8299e-05
deg
peri
135.6568565302452
9.2905e-05
deg
M
102.318760566713
7.8078e-05
deg
t
p
2458215.233991753342
(2018-Apr-06.73399175)
0.00028747
TDB
period
1355.526222176681
3.71
3.1265e-05
8.56e-08
d
yr
n
.2655795174673332
6.1256e-09
deg/d
Q
2.623746664331255
4.0345e-08
au
Orbit Determination Parameters
# obs. used (total)
79
data-arc span
7023 days (19.23 yr)
first obs. used
2000-03-03
last obs. used
2019-05-26
planetary ephem.
DE431
SB-pert. ephem.
SB431-N16
condition code
0
norm. resid. RMS
.57496
source
ORB
producer
Otto Matic
solution date
2019-Sep-24 06:57:31
Additional Information
Earth MOID
= 1.19311 au
Jupiter MOID
= 2.45054 au
T_jup
= 3.512
[ show covariance matrix ]
[
Ephemeris
|
Orbit Diagram
|
Orbital Elements
|
Mission Design
|
Physical Parameters
|
Discovery Circumstances
]
Physical Parameter Table
Parameter
Symbol
Value
Units
Sigma
Reference
Notes
absolute magnitude
H
17.5
n/a
MPO434348
379604 (2011 CY52)
Discovered 2009-Aug-16 by Spacewatch at Kitt Peak
Reference:
Last Updated:
2013-11-20
[
Ephemeris
|
Orbit Diagram
|
Orbital Elements
|
Mission Design
|
Physical Parameters
|
Discovery Circumstances
]
2019-Dec-15 23:42 UT
(server date/time)
Site Manager:
Ryan S. Park
Webmaster
:
Alan B. Chamberlin